DMSP 5D-2 F11 DEB, 28307

Orbit data source: Space-Track

DMSP 5D-2 F11 DEB, 28307 is space debris in SSO originally from a launch on Thu, 28 Nov 1991 UTC launched from the Air Force Western Test Range (AFWTR). Debris objects in space refer to the collection of defunct objects orbiting the Earth. Examples of debris include non-operational satellites, rocket bodies, and fragments generated from explosions, collisions, or faulty payload assembly.

Loading next visibility...
Identifier
28307, 1991-082U
Orbit
SSO
Country
Flag of USUS
Related business
Manufacturer
Unknown
Mission
Spacecraft
Bus & Motor
Unknown
Mass
Unknown
Launch date (UTC)
1991-11-28 (34 years ago)
Launch vehicle
Unknown
Launch site
Air Force Western Test Range (AFWTR)
Object type
Payload
Rocket body
Debris
Shape & HBR
Unknown shape, 0.2 m
Radar Cross Section
Small (<0.1 m²)

Expand to show TLE details & history
Last TLE update: 1 day ago

TLE from 1 day ago
0 DMSP 5D-2 F11 DEB
1 28307U 91082U   25349.09761406  .00000070  00000-0  63617-4 0  9990
2 28307  98.8065  26.5011 0038792  16.5793  40.1597 14.10415507113833
Epoch: 2025-12-15T02:20Z
TLE epoch observation values (Epoch: 2025-12-15T02:20:33.854Z)
Latitude
56.09955°
Longitude
-105.89862°
Altitude
845.851 km
Speed
7.446 km/s
True Right ascension
00h 52m 58s
True Declination
55° 56' 32"
Sunlit
Object was in full shadow at epoch
Visualization orbit readout
Latitude
Unknown
Longitude
Unknown
Altitude
Unknown
Speed
Unknown
Apparent Right ascension
Unknown
Apparent Declination
Unknown
Sunlit
N/A
Visualization observer readout
Local Sidereal Time
12:47:34
Azimuth
Unknown
Elevation
Unknown
Doppler factor
Unknown
Orbital elements
Apogee altitude
883.185 km
Perigee altitude
827.067 km
Semi-major axis
7,233.263 km
Eccentricity
0.00388
Inclination
98.8065°
RAAN
26.5011°
Arg. of periapsis
16.5793°
True anomaly
40.44745°
Mean anomaly
40.1597°
Eccentric anomaly
40.30347°
Mean motion
3.52811 °/min
Orbital period
102.04 mins
BSTAR
0.000063617

Documentation

Showing up to 5 results
|